This is the latest recevied weather packets stored in our database for station/object PY2UTU-WX. If no packets are shown the sender has not sent any weather packets the latest 10 day(s).
| Time | Temp. | Humidity | Pressure | Rain* | Wind** | Luminosity | Snow |
|---|---|---|---|---|---|---|---|
| 1778124447 | 23.89° C | 98% | 925.2 hPa | - | - | - | - |
| 1778123547 | 23.33° C | 98% | 925.3 hPa | - | - | - | - |
| 1778122646 | 23.33° C | 98% | 925.3 hPa | - | - | - | - |
| 1778121747 | 23.89° C | 98% | 925.4 hPa | - | - | - | - |
| 1778120846 | 22.78° C | 98% | 925.5 hPa | - | - | - | - |
| 1778119946 | 22.78° C | 98% | 925.7 hPa | - | - | - | - |
| 1778119046 | 22.78° C | 98% | 925.7 hPa | - | - | - | - |
| 1778118147 | 22.78° C | 98% | 925.8 hPa | - | - | - | - |
| 1778117246 | 22.78° C | 98% | 925.9 hPa | - | - | - | - |
| 1778116346 | 22.78° C | 98% | 926 hPa | - | - | - | - |
| 1778115446 | 22.78° C | 98% | 926.1 hPa | - | - | - | - |
| 1778114546 | 23.33° C | 98% | 926 hPa | - | - | - | - |
| 1778113646 | 23.33° C | 98% | 926 hPa | - | - | - | - |
| 1778112747 | 23.33° C | 98% | 926.2 hPa | - | - | - | - |
| 1778111847 | 23.33° C | 98% | 926.2 hPa | - | - | - | - |
| 1778110946 | 23.33° C | 98% | 926.2 hPa | - | - | - | - |
| 1778110046 | 22.78° C | 98% | 926.1 hPa | - | - | - | - |
| 1778109146 | 23.33° C | 98% | 926.1 hPa | - | - | - | - |
| 1778108246 | 23.33° C | 98% | 925.9 hPa | - | - | - | - |
| 1778107346 | 23.33° C | 98% | 925.9 hPa | - | - | - | - |
| 1778106446 | 23.89° C | 98% | 925.8 hPa | - | - | - | - |
| 1778105546 | 23.33° C | 98% | 925.8 hPa | - | - | - | - |
| 1778104646 | 24.44° C | 98% | 925.7 hPa | - | - | - | - |
| 1778103746 | 24.44° C | 98% | 925.6 hPa | - | - | - | - |
| 1778102846 | 24.44° C | 98% | 925.7 hPa | - | - | - | - |
* Rain since midnight (hover to see other rain measurements)
** Current wind speed in m/s (hover to see current wind gust speed)